TITAN 3C TRANSTAGE DEB

基本信息
目录编号:
43517
目录名称:
TITAN 3C TRANSTAGE DEB
国际标识:
1969-013V
轨道中心:
EARTH
物体状态:
在轨
发射日期:
1969-02-09 UTC
轨道信息
数据来源: 国际轨道数据
星历时间: 2026-07-13T05:37:08+0800
半长轴: 43919.562km
偏心率: 0.0066389
轨道倾角: 1.406°
近地点辐角: 188.971°
升交点赤经: 105.908°
平近点角: 169.788°
近地点: 37249.847km
远地点: 37833.003km
周期: 1526.675分钟
每日圈数: 0.943226
详细信息
发射场:
AFETR
轨道高度:
HEO
数据来源:
AOE Integration Group
参考系:
TEME
时间系统:
UTC
历元类型:
SGP4
2D轨道图
3D轨道图
轨道高度分析图
轨道倾角分析图
轨道综合分析图
查看轨道综合分析图